Miami, FL

6:04 PM EDT on April 24, 2018 (GMT -0400)
Miami International

Weather History for KMIA - August, 2013

Change the Weather History Date:

Saturday, August 3, 2013

  Actual Average Record
Temperature  
Mean Temperature 82 °F 85 °F  
Max Temperature 88 °F 91 °F 96 °F (1954)
Min Temperature 75 °F 78 °F 69 °F (1985)
Degree Days  
Heating Degree Days 0 0  
Month to date heating degree days 0 0  
Since 1 June heating degree days 0 0  
Since 1 July heating degree days 0 0  
Cooling Degree Days 17 20  
Month to date cooling degree days 57 60  
Year to date cooling degree days 2601 2540  
Since 1 June cooling degree days 1156 1184  
Growing Degree Days 32 (Base 50)    
Moisture  
Dew Point 74 °F    
Average Humidity 84    
Maximum Humidity 94    
Minimum Humidity 74    
Precipitation  
Precipitation 0.87 in 0.25 in 2.63 in (1939)
Month to date precipitation 1.18 0.74  
Year to date precipitation 39.43 32.26  
Snow  
Snow 0.00 in - - ()
Month to date snowfall 0.0  
Since 1 June snowfall 0.0  
Since 1 July snowfall 0.0  
Snow Depth 0.00 in    
Sea Level Pressure  
Sea Level Pressure 30.11 in    
Wind  
Wind Speed 3 mph (SSW)    
Max Wind Speed 24 mph    
Max Gust Speed 30 mph    
Visibility 10 miles    
Events Rain , Thunderstorm    
T = Trace of Precipitation, MM = Missing Value Source: NWS Daily Summary

Daily Weather History Graph

Daily Weather History Graph

Search for Another Location

Airport or City:

Astronomy

Aug. 03, 2013 Rise Set
Actual Time 6:48 AM EDT 8:05 PM EDT
Civil Twilight 6:23 AM EDT 8:30 PM EDT
Nautical Twilight 5:54 AM EDT 8:59 PM EDT
Astronomical Twilight 5:24 AM EDT 9:29 PM EDT
Moon 4:00 AM EDT (8/3) 5:44 PM EDT (8/3)
Length of Visible Light 14h 06m
Length of Day
13h 17m
Waning Crescent, 9% of the Moon is Illuminated
Aug 3
Waning Crescent
Aug 6
New
Aug 14
First Quarter
Aug 20
Full
Aug 28
Last Quarter

Hourly Weather History & Observations

Time (EDT) Temp. Heat Index Dew Point Humidity Pressure Visibility Wind Dir Wind Speed Gust Speed Precip Events Conditions
12:53 AM 82.0 °F 87.9 °F 73.9 °F 76% 30.06 in 10.0 mi Calm Calm - N/A   Overcast
1:53 AM 82.0 °F 88.6 °F 75.0 °F 79% 30.08 in 10.0 mi Calm Calm - N/A   Overcast
2:53 AM 82.0 °F 88.6 °F 75.0 °F 79% 30.07 in 10.0 mi SSW 3.5 mph - N/A   Overcast
3:53 AM 81.0 °F 86.7 °F 75.0 °F 82% 30.05 in 10.0 mi Calm Calm - N/A   Mostly Cloudy
4:53 AM 81.0 °F 86.7 °F 75.0 °F 82% 30.05 in 10.0 mi South 3.5 mph - N/A   Mostly Cloudy
5:53 AM 81.0 °F 87.3 °F 75.9 °F 85% 30.06 in 10.0 mi South 3.5 mph - N/A   Mostly Cloudy
6:53 AM 80.1 °F 85.1 °F 75.0 °F 85% 30.07 in 10.0 mi SSE 3.5 mph - N/A   Mostly Cloudy
7:53 AM 81.0 °F 86.7 °F 75.0 °F 82% 30.09 in 10.0 mi Calm Calm - N/A   Mostly Cloudy
8:53 AM 82.0 °F 89.4 °F 75.9 °F 82% 30.10 in 10.0 mi South 3.5 mph - N/A   Mostly Cloudy
9:53 AM 84.0 °F 93.7 °F 77.0 °F 79% 30.11 in 10.0 mi South 5.8 mph - N/A   Overcast
10:53 AM 84.9 °F 94.1 °F 75.9 °F 74% 30.12 in 10.0 mi South 9.2 mph - N/A   Mostly Cloudy
11:53 AM 84.9 °F 94.1 °F 75.9 °F 74% 30.12 in 10.0 mi South 8.1 mph 18.4 mph 0.00 in Rain Light Rain
12:53 PM 88.0 °F 97.5 °F 75.0 °F 65% 30.12 in 10.0 mi SSE 10.4 mph - 0.00 in   Mostly Cloudy
1:53 PM 84.9 °F 91.4 °F 73.0 °F 67% 30.11 in 10.0 mi Variable 3.5 mph 17.3 mph 0.00 in Rain Light Rain
2:53 PM 77.0 °F - 72.0 °F 84% 30.13 in 10.0 mi NW 9.2 mph - 0.01 in Rain Light Rain
2:59 PM 75.2 °F - 71.6 °F 89% 30.13 in 10.0 mi WNW 6.9 mph 18.4 mph 0.00 in Rain , Thunderstorm Light Thunderstorms and Rain
3:13 PM 75.2 °F - 69.8 °F 83% 30.13 in 4.0 mi WSW 15.0 mph 29.9 mph 0.30 in Rain , Thunderstorm Heavy Thunderstorms and Rain
3:19 PM 77.0 °F - 69.8 °F 78% 30.14 in 0.5 mi SSE 8.1 mph 27.6 mph 0.68 in Rain , Thunderstorm Heavy Thunderstorms and Rain
3:31 PM 75.2 °F - 69.8 °F 83% 30.13 in 5.0 mi Variable 4.6 mph - 0.81 in Rain , Thunderstorm Light Thunderstorms and Rain
3:48 PM 75.2 °F - 71.6 °F 89% 30.12 in 10.0 mi Calm Calm - 0.81 in Rain , Thunderstorm Light Thunderstorms and Rain
3:53 PM 75.9 °F - 70.0 °F 82% 30.12 in 10.0 mi Calm Calm - 0.81 in Rain , Thunderstorm Light Thunderstorms and Rain
4:09 PM 75.2 °F - 71.6 °F 89% 30.11 in 10.0 mi WNW 4.6 mph - 0.00 in Rain Light Rain
4:53 PM 77.0 °F - 73.9 °F 90% 30.11 in 10.0 mi Calm Calm - 0.02 in Rain Light Rain
5:53 PM 77.0 °F - 73.0 °F 88% 30.11 in 10.0 mi NNW 3.5 mph - 0.03 in Rain Light Rain
6:53 PM 78.1 °F - 73.9 °F 87% 30.10 in 10.0 mi Calm Calm - 0.00 in Rain Light Rain
7:53 PM 78.1 °F - 75.0 °F 90% 30.11 in 10.0 mi Calm Calm - N/A   Mostly Cloudy
8:53 PM 77.0 °F - 73.9 °F 90% 30.12 in 10.0 mi Calm Calm - N/A   Mostly Cloudy
9:53 PM 78.1 °F - 73.9 °F 87% 30.13 in 10.0 mi Calm Calm - N/A   Mostly Cloudy
10:53 PM 78.1 °F - 75.0 °F 90% 30.14 in 10.0 mi Calm Calm - N/A   Overcast
11:53 PM 77.0 °F - 75.0 °F 94% 30.14 in 10.0 mi Calm Calm - N/A   Overcast